Flag for Brazil Weather past 2 weeks in Macapá, Amapá, Brazil

Now
75 °F

Broken clouds.


Feels Like: 73 °F
Forecast: 76 / 88 °F
Wind: 3 mph from Northwest

Location: Macapa Airport

Current Time: Mar 6, 2015 at 8:24:14 AM

Latest Report: Mar 6, 2015 at 8:00 AM


Visibility: N/A

Pressure: 29.89 "Hg

Humidity: 100%

Dew point: 75 °F

Location of MacapáLocation

Historic Weather in Macapá — Graph

°F

Macapá temperature yesterday

Maximum temperature yesterday: 91 °F (at 2:00 PM)
Minimum temperature yesterday: 77 °F (at 5:00 AM)
Average temperature yesterday: 83 °F

Past Weeks' High & Low Weather Summary

 TemperatureHumidityPressure
High95 °F (Feb 27, 2:00 PM)100% (Feb 19, 1:00 PM)29.95 "Hg (Feb 19, 1:00 PM)
Low73 °F (Feb 22, 8:00 PM)50% (Feb 27, 2:00 PM)29.74 "Hg (Mar 5, 4:00 PM)
Average80 °F86%29.86 "Hg
* Reported Feb 19 7:00 AM — Mar 6 7:00 AM, Macapá, Weather by CustomWeather, © 2015

Note: Actual official high and low records may vary slightly from our data, if they occured in-between our weather recording intervals... More about our weather records

Advertising

Macapá weather history for previous 24 hours

 ConditionsComfort  
Time TempWeatherWind HumidityBarometerVisibility
7:00 AM
Fri, Mar 6
77 °FPartly sunny.1 mph100%29.89 "HgN/A
6:00 AM77 °FLight rain. Partly cloudy.2 mph100%29.86 "HgN/A
5:00 AM77 °FPartly cloudy.3 mph100%29.83 "HgN/A
4:00 AM77 °FMostly cloudy.3 mph100%29.83 "HgN/A
3:00 AM77 °FMostly cloudy.2 mph100%29.86 "HgN/A
2:00 AM77 °FLight rain. Mostly cloudy.5 mph100%29.86 "HgN/A
1:00 AM77 °FLight rain. Mostly cloudy.2 mph100%29.89 "Hg5 mi
12:00 AM79 °FPartly cloudy.2 mph100%29.89 "HgN/A
11:00 PM
Thu, Mar 5
79 °FLight rain. Mostly cloudy.3 mph94%29.89 "HgN/A
10:00 PM79 °FPartly cloudy.6 mph94%29.86 "HgN/A
9:00 PM81 °FPartly cloudy.5 mph89%29.83 "HgN/A
8:00 PM79 °FPassing clouds.6 mph94%29.80 "HgN/A
7:00 PM79 °FPassing clouds.6 mph94%29.80 "HgN/A
6:00 PM86 °FScattered clouds.6 mph66%29.74 "HgN/A
5:00 PM88 °FScattered clouds.7 mph62%29.74 "HgN/A
4:00 PM90 °FScattered clouds.12 mph59%29.74 "HgN/A
3:00 PM88 °FScattered clouds.10 mph66%29.77 "HgN/A
2:00 PM91 °FBroken clouds.9 mph63%29.83 "HgN/A
1:00 PM90 °FPartly sunny.8 mph63%29.86 "HgN/A
12:00 PM88 °FMostly cloudy.8 mph66%29.89 "HgN/A
9:00 AM82 °FPartly sunny.7 mph84%29.89 "HgN/A
Weather by CustomWeather, © 2015

See weather overviewHow to use our weather pages